SCP
5 8 6 5 5 5 3 4 5 4 4 4 2 2 1 2 1 1 1 1 1 0
4 5 5 6 5 5 5 4 5 3 3 3 3 3 3 3 2 2 1 0 0 0
3 3 3 3 3 3 3 3 2 3 5 5 4 3 4 4 2 2 1 1 0 0
1 2 2 2 2 2 2 2 2 2 3 4 4 3 4 3 2 2 1 1 1 1
3 3 2 2 2 1 1 1 1 1 2 2 2 3 3 3 2 1 1 1 1 0
2 3 3 2 2 1 1 1 1 1 1 1 1 1 0 0 0 0 0 0 0 0
2 2 3 2 2 1 1 1 1 0 0 0 0 0 0 0 0 0 0 0 0 0
0 1 2 2 1 1 1 0 0 0 0 0 0 0 0 0 0 0 0 0 0 0
0 0 0 1 1 2 1 0 0 0 0 0 0 0 0 0 0 0 0 0 0 0
-0 0 0 0 0 1 2 2 1 0 0 0 0 0 0 0 0 0 0 0 0 0
0 0 0 0 0 1 1 3 3 1 1 1 0 0 0 0 0 0 0 0 0 0
0 0 0 0 0 0 1 2 2 2 1 1 1 0 0 0 0 0 0 0 0 0
0 0 0 0 0 0 1 1 1 1 1 1 1 0 0 0 0 0 0 -0 -0 -0
0 0 0 0 1 1 0 1 1 1 2 1 1 0 0 0 0 0 0 -0 -0 -0
Wind_Speed_500mb
65 60 57 50 49 51 51 48 46 49 49 51 52 57 61 61 55 57 70 68 74 74
57 58 54 55 54 48 48 45 44 44 45 47 48 51 56 66 71 66 70 66 68 82
50 51 48 50 50 44 42 47 42 47 46 44 44 46 55 59 50 57 63 62 71 64
39 43 45 48 50 52 51 49 47 38 36 35 36 39 44 51 51 51 50 47 46 46
28 32 34 40 39 36 39 38 34 34 35 35 33 33 31 31 30 27 26 23 22 22
28 32 35 37 38 37 37 37 37 37 38 36 35 33 30 28 28 26 23 21 20 21
26 35 43 39 38 39 38 40 44 43 42 40 38 35 33 31 28 25 21 19 20 23
16 30 33 42 44 43 43 44 46 46 44 41 41 40 37 31 24 17 13 16 21 25
35 26 21 36 46 56 55 51 49 51 49 49 46 45 43 30 21 16 19 21 23 27
52 43 36 26 38 51 60 59 57 57 56 55 50 52 49 41 28 24 25 26 27 25
66 75 66 46 38 47 54 72 74 66 60 60 54 58 53 47 38 30 32 32 31 32
62 59 75 95 82 59 60 69 71 72 67 64 60 67 60 51 32 27 28 29 33 33
75 70 72 71 76 99 82 70 68 70 69 66 64 68 64 57 38 32 28 27 33 37
91 78 79 78 74 72 68 75 66 72 68 65 67 60 66 62 46 38 33 29 30 30
Wind_Direction_500mb
218 215 217 221 216 213 216 221 220 222 220 226 232 240 247 247 250 259 250 254 250 242
213 210 214 213 209 208 208 210 209 220 225 229 232 234 237 239 242 241 240 248 249 239
212 204 199 204 208 201 205 205 213 222 224 225 229 232 235 242 241 241 244 244 232 240
207 202 201 206 209 214 216 219 221 219 215 216 218 221 224 228 228 231 232 234 236 239
202 197 198 199 196 200 205 207 201 202 203 202 203 204 202 198 207 205 206 208 212 223
218 202 197 208 194 195 199 194 196 198 197 191 189 184 184 186 189 192 199 208 221 232
238 231 215 212 214 203 199 198 196 196 198 193 192 192 192 190 189 192 203 220 236 246
272 240 232 227 220 213 205 201 197 196 199 195 196 196 193 191 189 203 240 270 280 274
264 254 248 231 223 213 209 205 201 204 203 195 194 200 202 198 206 227 261 279 292 283
247 247 246 248 231 221 214 209 206 206 200 196 198 208 211 218 223 239 258 282 301 297
256 247 250 243 238 229 221 214 210 206 206 202 205 210 213 225 233 243 261 280 296 302
243 242 248 246 239 243 230 220 217 213 210 207 209 216 221 228 227 240 255 269 286 299
237 237 231 225 228 232 231 226 222 217 213 211 208 217 221 230 226 238 254 271 287 296
239 241 233 229 223 217 217 214 215 210 207 210 211 217 224 231 227 232 249 264 277 284
Wind_Speed_850mb
65 60 57 50 49 51 51 48 46 49 49 51 52 57 61 61 55 57 70 68 74 74
57 58 54 55 54 48 48 45 44 44 45 47 48 51 56 66 71 66 70 66 68 82
50 51 48 50 50 44 42 47 42 47 46 44 44 46 55 59 50 57 63 62 71 64
39 43 45 48 50 52 51 49 47 38 36 35 36 39 44 51 51 51 50 47 46 46
28 32 34 40 39 36 39 38 34 34 35 35 33 33 31 31 30 27 26 23 22 22
28 32 35 37 38 37 37 37 37 37 38 36 35 33 30 28 28 26 23 21 20 21
26 35 43 39 38 39 38 40 44 43 42 40 38 35 33 31 28 25 21 19 20 23
16 30 33 42 44 43 43 44 46 46 44 41 41 40 37 31 24 17 13 16 21 25
35 26 21 36 46 56 55 51 49 51 49 49 46 45 43 30 21 16 19 21 23 27
52 43 36 26 38 51 60 59 57 57 56 55 50 52 49 41 28 24 25 26 27 25
66 75 66 46 38 47 54 72 74 66 60 60 54 58 53 47 38 30 32 32 31 32
62 59 75 95 82 59 60 69 71 72 67 64 60 67 60 51 32 27 28 29 33 33
75 70 72 71 76 99 82 70 68 70 69 66 64 68 64 57 38 32 28 27 33 37
91 78 79 78 74 72 68 75 66 72 68 65 67 60 66 62 46 38 33 29 30 30
Wind_Direction_850mb
218 215 217 221 216 213 216 221 220 222 220 226 232 240 247 247 250 259 250 254 250 242
213 210 214 213 209 208 208 210 209 220 225 229 232 234 237 239 242 241 240 248 249 239
212 204 199 204 208 201 205 205 213 222 224 225 229 232 235 242 241 241 244 244 232 240
207 202 201 206 209 214 216 219 221 219 215 216 218 221 224 228 228 231 232 234 236 239
202 197 198 199 196 200 205 207 201 202 203 202 203 204 202 198 207 205 206 208 212 223
218 202 197 208 194 195 199 194 196 198 197 191 189 184 184 186 189 192 199 208 221 232
238 231 215 212 214 203 199 198 196 196 198 193 192 192 192 190 189 192 203 220 236 246
272 240 232 227 220 213 205 201 197 196 199 195 196 196 193 191 189 203 240 270 280 274
264 254 248 231 223 213 209 205 201 204 203 195 194 200 202 198 206 227 261 279 292 283
247 247 246 248 231 221 214 209 206 206 200 196 198 208 211 218 223 239 258 282 301 297
256 247 250 243 238 229 221 214 210 206 206 202 205 210 213 225 233 243 261 280 296 302
243 242 248 246 239 243 230 220 217 213 210 207 209 216 221 228 227 240 255 269 286 299
237 237 231 225 228 232 231 226 222 217 213 211 208 217 221 230 226 238 254 271 287 296
239 241 233 229 223 217 217 214 215 210 207 210 211 217 224 231 227 232 249 264 277 284